Weather History for KHIB - January, 2013

Change the Weather History Date:

Sunday, January 13, 2013

  Actual Average Record
Temperature  
Mean Temperature 12 °F -  
Max Temperature 23 °F 16 °F 42 °F (1987)
Min Temperature 0 °F -4 °F -32 °F (1965)
Degree Days  
Heating Degree Days 54    
Moisture  
Dew Point -4 °F    
Average Humidity 65    
Maximum Humidity 78    
Minimum Humidity 34    
Precipitation  
Precipitation 0.00 in - - ()
Sea Level Pressure  
Sea Level Pressure 30.08 in    
Wind  
Wind Speed 10 mph (NW)    
Max Wind Speed 15 mph    
Max Gust Speed -    
Visibility 9 miles    
Events Snow    
Averages and records for this station are not official NWS values.
T = Trace of Precipitation, MM = Missing Value Source: NWS Daily Summary

Daily Weather History Graph

Daily Weather History Graph

Search for Another Location

Airport or City:

Trip Planner

Search our weather history database for the weather conditions in past years. The results will help you decide how hot, cold, wet, or windy it might be!

Date:

Astronomy

Jan. 13, 2013 Rise Set
Actual Time 7:55 AM CST 4:45 PM CST
Civil Twilight 7:20 AM CST 5:20 PM CST
Nautical Twilight 6:42 AM CST 5:58 PM CST
Astronomical Twilight 6:05 AM CST 6:35 PM CST
Moon 8:42 AM CST (1/13) 7:38 PM CST (1/13)
Length of Visible Light 10h 00m
Length of Day
8h 50m
Waxing Crescent, 5% of the Moon is Illuminated
Jan 13
Waxing Crescent
Jan 18
First Quarter
Jan 26
Full
Feb 3
Last Quarter
Feb 10
New

Hourly Weather History & Observations

Time (CST) Temp. Windchill Dew Point Humidity Pressure Visibility Wind Dir Wind Speed Gust Speed Precip Events Conditions
12:53 AM 3.9 °F -14.3 °F -2.9 °F 73% 30.06 in 10.0 mi NW 15.0 mph - N/A   Mostly Cloudy
1:53 AM 3.0 °F -14.1 °F -4.0 °F 73% 30.06 in 10.0 mi NW 12.7 mph - N/A   Scattered Clouds
2:35 AM 3.2 °F -12.2 °F -4.0 °F 72% 29.98 in 10.0 mi NNW 10.4 mph - N/A   Mostly Cloudy
2:53 AM 3.0 °F -10.5 °F -4.0 °F 73% 30.09 in 10.0 mi NNW 8.1 mph - N/A   Mostly Cloudy
3:19 AM 1.4 °F -11.3 °F -4.0 °F 78% 29.98 in 10.0 mi NNW 6.9 mph - N/A   Scattered Clouds
3:35 AM 3.2 °F -7.8 °F -4.0 °F 72% 29.98 in 10.0 mi NNW 5.8 mph - N/A   Mostly Cloudy
3:53 AM 3.0 °F -12.5 °F -4.0 °F 73% 30.09 in 10.0 mi NW 10.4 mph - N/A   Overcast
4:40 AM 3.2 °F -13.1 °F -4.0 °F 72% 29.97 in 10.0 mi NNW 11.5 mph - N/A   Overcast
4:53 AM 3.0 °F -14.1 °F -4.0 °F 73% 30.07 in 10.0 mi NW 12.7 mph - N/A   Overcast
5:53 AM 1.9 °F -15.5 °F -4.0 °F 76% 30.08 in 6.0 mi NW 12.7 mph - 0.00 in Snow Light Snow
6:53 AM 1.9 °F -10.6 °F -5.1 °F 72% 30.12 in 5.0 mi NNW 6.9 mph - 0.00 in Snow Light Snow
7:39 AM 1.4 °F -11.3 °F -5.8 °F 72% 30.03 in 10.0 mi NNW 6.9 mph - 0.00 in   Overcast
7:53 AM 1.0 °F -11.7 °F -6.0 °F 72% 30.15 in 10.0 mi NW 6.9 mph - 0.00 in   Mostly Cloudy
8:15 AM 1.4 °F -11.3 °F -5.8 °F 72% 30.05 in 9.0 mi NW 6.9 mph - N/A   Partly Cloudy
8:53 AM 1.0 °F -14.0 °F -6.0 °F 72% 30.17 in 10.0 mi NW 9.2 mph - N/A   Partly Cloudy
9:42 AM -0.4 °F -16.7 °F -7.6 °F 72% 30.05 in 7.0 mi NW 10.4 mph - N/A   Partly Cloudy
9:53 AM -0.0 °F -15.3 °F -7.1 °F 72% 30.17 in 6.0 mi NW 9.2 mph - N/A   Haze
10:53 AM 1.9 °F -11.8 °F -6.0 °F 69% 30.16 in 10.0 mi NW 8.1 mph - N/A   Scattered Clouds
11:53 AM 3.0 °F -13.3 °F -5.1 °F 69% 30.12 in 10.0 mi WNW 11.5 mph - N/A   Overcast
12:53 PM 5.0 °F -10.0 °F -2.9 °F 70% 30.09 in 6.0 mi NW 10.4 mph - 0.00 in   Haze
1:05 PM 5.0 °F -9.1 °F -2.2 °F 72% 29.98 in 6.0 mi WNW 9.2 mph - N/A   Haze
1:13 PM 5.0 °F -9.1 °F -2.2 °F 72% 29.97 in 10.0 mi NW 9.2 mph - N/A   Scattered Clouds
1:24 PM 5.0 °F -10.0 °F -2.2 °F 72% 29.97 in 10.0 mi NW 10.4 mph - N/A   Partly Cloudy
1:53 PM 5.0 °F -6.9 °F -2.9 °F 70% 30.09 in 10.0 mi NW 6.9 mph - N/A   Scattered Clouds
2:02 PM 6.8 °F -2.0 °F -2.2 °F 67% 29.98 in 6.0 mi WNW 4.6 mph - N/A   Haze
2:11 PM 6.8 °F -5.9 °F -0.4 °F 72% 29.98 in 5.0 mi NW 8.1 mph - N/A   Haze
2:23 PM 8.6 °F -2.6 °F -0.4 °F 67% 29.99 in 9.0 mi NW 6.9 mph - N/A   Scattered Clouds
2:53 PM 23.0 °F 14.7 °F -2.0 °F 34% 30.09 in 10.0 mi NW 6.9 mph - N/A   Clear
3:53 PM 19.0 °F 8.2 °F -2.0 °F 40% 30.11 in 10.0 mi WNW 9.2 mph - N/A   Scattered Clouds
4:53 PM 23.0 °F 11.7 °F -2.0 °F 34% 30.11 in 10.0 mi NW 11.5 mph - N/A   Mostly Cloudy
5:53 PM 19.9 °F 10.1 °F -2.0 °F 38% 30.12 in 10.0 mi NW 8.1 mph - N/A   Partly Cloudy
6:53 PM 10.9 °F 4.7 °F -2.0 °F 56% 30.14 in 10.0 mi West 3.5 mph - N/A   Clear
7:53 PM 10.9 °F 4.7 °F -2.0 °F 56% 30.15 in 10.0 mi West 3.5 mph - N/A   Partly Cloudy
8:53 PM 8.1 °F - -2.9 °F 61% 30.17 in 10.0 mi Calm Calm - N/A   Overcast
9:53 PM 10.9 °F 4.7 °F -2.9 °F 54% 30.17 in 10.0 mi WNW 3.5 mph - N/A   Overcast
10:53 PM 17.1 °F 7.6 °F -2.9 °F 41% 30.18 in 10.0 mi WNW 6.9 mph - N/A   Overcast
11:53 PM 12.9 °F 5.2 °F -2.0 °F 51% 30.19 in 10.0 mi WNW 4.6 mph - N/A   Overcast